Regional Weather Roundup
Issued by NWS

Home | Current Version | Previous Version | Graphics & Text | Print | Product List | Glossary On
Versions: 1 2 3 4 5 6 7 8 9 10 11 12 13 14 15 16 17 18 19 20 21 22 23 24 25 26 27 28 29 30 31 32 33 34 35 36 37 38 39 40 41 42 43 44 45 46 47 48 49 50
000
ASUS43 KFSD 311702
RWRSD

WEATHER ROUNDUP FOR SOUTH DAKOTA
NATIONAL WEATHER SERVICE SIOUX FALLS SD
1200 PM CDT MON AUG 31 2015

NOTE: "FAIR" INDICATES FEW OR NO CLOUDS BELOW 12,000 FEET WITH NO
SIGNIFICANT WEATHER AND/OR OBSTRUCTIONS TO VISIBILITY.


SDZ001>005-009-010-012>017-311800-
NORTHWEST AND NORTH CENTRAL SOUTH DAKOTA

CITY           SKY/WX    TMP DP  RH WIND       PRES   REMARKS
FAITH            N/A     70  52  52 N14       29.95R
MOBRIDGE       CLOUDY    75  61  61 N12       29.87R
$$

SDZ012>016-024>037-041>051-057-063-072>074-311800-
SOUTHWEST AND SOUTH CENTRAL SOUTH DAKOTA

CITY           SKY/WX    TMP DP  RH WIND       PRES   REMARKS
RAPID CTY ARPT CLOUDY    69  54  58 N17G23    30.01R
PIERRE         CLOUDY    77  60  55 N15G24    29.86R
CUSTER         CLOUDY    71  44  37 VRB3      30.11R
ELLSWORTH AFB  CLOUDY    68  53  58 N16       30.01R
PHILIP         LGT RAIN  66  60  81 NW9       29.95R
PINE RIDGE     CLOUDY    68  53  58 VRB6      30.02R
WINNER         FAIR      86  58  38 NW18      29.87R
$$

SDZ004>011-016>023-039-040-311800-
NORTHEAST SOUTH DAKOTA

CITY           SKY/WX    TMP DP  RH WIND       PRES   REMARKS
ABERDEEN       MOSUNNY   76  60  57 W9        29.81R
WATERTOWN      SUNNY     78  65  63 S20       29.83R
BROOKINGS      SUNNY     75  66  73 S18       29.88F
$$

SDZ017-020-022-023-036>040-048>070-311800-
SOUTHEAST SOUTH DAKOTA

CITY           SKY/WX    TMP DP  RH WIND       PRES   REMARKS
SIOUX FALLS    MOSUNNY   77  68  73 S18       29.91R
HURON          SUNNY     82  63  52 S17G23    29.80S
CHAMBERLAIN    MOSUNNY   83  60  45 NW12      29.83R
MITCHELL       SUNNY     81  66  60 S10G21    29.84R
YANKTON        SUNNY     79  68  69 S15       29.89S
$$

ABBREVIATIONS USED IN REMARKS
   TC - TEMPERATURE IN CELSIUS
  WCI - WIND CHILL INDEX
   HX - HEAT INDEX
  VSB - VISIBILITY




USA.gov is the U.S. government's official web portal to all federal, state and local government web resources and services.